Rome, NY

6:35 AM EST on February 22, 2017 (GMT -0500)
Griffiss

Weather History for KRME - October, 2011

Change the Weather History Date:

Saturday, October 1, 2011

  Actual Average Record
Temperature  
Mean Temperature 48 °F -  
Max Temperature 55 °F 65 °F 81 °F (1988)
Min Temperature 42 °F 46 °F 27 °F (1993)
Degree Days  
Heating Degree Days 16    
Moisture  
Dew Point 44 °F    
Average Humidity 88    
Maximum Humidity 96    
Minimum Humidity 82    
Precipitation  
Precipitation 0.07 in - - ()
Sea Level Pressure  
Sea Level Pressure 29.84 in    
Wind  
Wind Speed 6 mph (NNW)    
Max Wind Speed 15 mph    
Max Gust Speed 24 mph    
Visibility 10 miles    
Events Rain    
Averages and records for this station are not official NWS values.
T = Trace of Precipitation, MM = Missing Value Source: NWS Daily Summary

Daily Weather History Graph

Daily Weather History Graph

Search for Another Location

Airport or City:

Trip Planner

Search our weather history database for the weather conditions in past years. The results will help you decide how hot, cold, wet, or windy it might be!

Date:

Astronomy

Oct. 01, 2011 Rise Set
Actual Time 6:58 AM EDT 6:43 PM EDT
Civil Twilight 6:30 AM EDT 7:11 PM EDT
Nautical Twilight 5:57 AM EDT 7:44 PM EDT
Astronomical Twilight 5:23 AM EDT 8:18 PM EDT
Moon 12:11 PM EDT (10/1) 9:28 PM EDT (10/1)
Length of Visible Light 12h 41m
Length of Day
11h 44m
Waxing Crescent, 24% of the Moon is Illuminated
Oct 1
Waxing Crescent
Oct 3
First Quarter
Oct 11
Full
Oct 19
Last Quarter
Oct 26
New

Hourly Weather History & Observations

Time (EDT) Temp. Windchill Dew Point Humidity Pressure Visibility Wind Dir Wind Speed Gust Speed Precip Events Conditions
12:53 AM 51.1 °F - 50.0 °F 96% 29.74 in 10.0 mi SE 3.5 mph - N/A   Overcast
1:53 AM 52.0 °F - 48.9 °F 89% 29.74 in 10.0 mi Calm Calm - N/A   Scattered Clouds
2:53 AM 51.1 °F - 48.9 °F 92% 29.72 in 10.0 mi Calm Calm - N/A   Clear
3:53 AM 55.0 °F - 51.1 °F 86% 29.72 in 10.0 mi NNE 6.9 mph - N/A   Clear
4:53 AM 55.0 °F - 51.1 °F 86% 29.72 in 10.0 mi North 4.6 mph - N/A   Scattered Clouds
5:12 AM 55.4 °F - 51.8 °F 88% 29.72 in 10.0 mi Variable 3.5 mph - N/A   Mostly Cloudy
5:53 AM 53.1 °F - 50.0 °F 89% 29.74 in 10.0 mi NNW 5.8 mph - N/A   Overcast
6:53 AM 50.0 °F - 46.0 °F 86% 29.77 in 10.0 mi North 5.8 mph - N/A   Overcast
8:02 AM 48.2 °F - 44.6 °F 87% 29.79 in 6.0 mi North 9.2 mph - 0.01 in Rain Rain
8:13 AM 48.2 °F - 44.6 °F 87% 29.79 in 9.0 mi Variable 5.8 mph - 0.01 in Rain Light Rain
8:53 AM 48.9 °F - 45.0 °F 86% 29.80 in 10.0 mi Variable 5.8 mph - 0.01 in   Overcast
9:53 AM 48.9 °F - 45.0 °F 86% 29.81 in 10.0 mi North 10.4 mph 24.2 mph N/A   Overcast
10:53 AM 48.9 °F - 44.1 °F 83% 29.83 in 10.0 mi NNW 15.0 mph 21.9 mph N/A   Overcast
11:07 AM 48.2 °F - 42.8 °F 82% 29.83 in 10.0 mi North 15.0 mph 24.2 mph N/A   Overcast
11:53 AM 48.0 °F - 43.0 °F 83% 29.86 in 10.0 mi Variable 6.9 mph - N/A   Overcast
12:53 PM 46.9 °F - 42.1 °F 83% 29.86 in 10.0 mi North 6.9 mph - 0.00 in Rain Light Rain
1:53 PM 46.0 °F 41.0 °F 41.0 °F 83% 29.86 in 10.0 mi NNW 10.4 mph 18.4 mph 0.01 in Rain Light Rain
2:53 PM 46.0 °F 41.4 °F 41.0 °F 83% 29.88 in 10.0 mi NNW 9.2 mph - 0.00 in Rain Light Rain
3:53 PM 45.0 °F 40.6 °F 41.0 °F 86% 29.89 in 10.0 mi NNW 8.1 mph - 0.01 in Rain Light Rain
4:53 PM 45.0 °F 39.3 °F 39.9 °F 82% 29.90 in 10.0 mi NNW 11.5 mph 16.1 mph 0.00 in   Overcast
5:53 PM 45.0 °F 42.6 °F 39.9 °F 82% 29.92 in 6.0 mi North 4.6 mph - 0.00 in Rain Light Rain
6:53 PM 44.1 °F 41.5 °F 41.0 °F 89% 29.93 in 8.0 mi NNW 4.6 mph - 0.01 in Rain Light Rain
7:53 PM 43.0 °F 38.8 °F 41.0 °F 93% 29.94 in 6.0 mi NNW 6.9 mph - 0.02 in Rain Light Rain
8:53 PM 43.0 °F 38.8 °F 41.0 °F 93% 29.94 in 9.0 mi NW 6.9 mph - 0.01 in Rain Light Rain
9:09 PM 42.8 °F 38.6 °F 41.0 °F 93% 29.94 in 10.0 mi NW 6.9 mph - 0.00 in   Overcast
9:29 PM 42.8 °F 38.6 °F 41.0 °F 93% 29.94 in 10.0 mi NW 6.9 mph - 0.00 in Rain Light Rain
9:39 PM 42.8 °F 38.0 °F 41.0 °F 93% 29.93 in 10.0 mi NNW 8.1 mph - 0.00 in   Overcast
9:53 PM 43.0 °F 38.8 °F 41.0 °F 93% 29.94 in 10.0 mi NNW 6.9 mph - 0.00 in Rain Light Rain
10:53 PM 43.0 °F 39.5 °F 39.9 °F 89% 29.93 in 10.0 mi NNW 5.8 mph - 0.00 in   Overcast
11:53 PM 44.1 °F 40.1 °F 39.9 °F 85% 29.92 in 10.0 mi NNW 6.9 mph - N/A   Overcast